Monroe, MI

4:41 PM EDT on April 26, 2017 (GMT -0400)
Custer

Weather History for KTTF - July, 2012

Change the Weather History Date:

Sunday, July 22, 2012

  Actual Average Record
Temperature  
Mean Temperature 80 °F -  
Max Temperature 93 °F 85 °F 98 °F (1978)
Min Temperature 66 °F 63 °F 49 °F (1947)
Cooling Degree Days 14    
Growing Degree Days 30 (Base 50)    
Moisture  
Dew Point 64 °F    
Average Humidity 60    
Maximum Humidity 100    
Minimum Humidity 30    
Precipitation  
Precipitation 0.00 in - - ()
Sea Level Pressure  
Sea Level Pressure 30.05 in    
Wind  
Wind Speed 5 mph (WSW)    
Max Wind Speed 16 mph    
Max Gust Speed 23 mph    
Visibility 10 miles    
Events      
Averages and records for this station are not official NWS values.
T = Trace of Precipitation, MM = Missing Value Source: NWS Daily Summary

Daily Weather History Graph

Daily Weather History Graph

Search for Another Location

Airport or City:

Trip Planner

Search our weather history database for the weather conditions in past years. The results will help you decide how hot, cold, wet, or windy it might be!

Date:

Astronomy

Jul. 22, 2012 Rise Set
Actual Time 6:18 AM EDT 9:01 PM EDT
Civil Twilight 5:45 AM EDT 9:34 PM EDT
Nautical Twilight 5:04 AM EDT 10:14 PM EDT
Astronomical Twilight 4:17 AM EDT 11:01 PM EDT
Moon 10:07 AM EDT (7/22) 10:38 PM EDT (7/22)
Length of Visible Light 15h 48m
Length of Day
14h 43m
Waxing Crescent, 13% of the Moon is Illuminated
Jul 22
Waxing Crescent
Jul 26
First Quarter
Aug 1
Full
Aug 9
Last Quarter
Aug 17
New

Hourly Weather History & Observations

Time (EDT) Temp. Heat Index Dew Point Humidity Pressure Visibility Wind Dir Wind Speed Gust Speed Precip Events Conditions
12:32 AM 73.4 °F - 62.6 °F 69% 30.05 in 10.0 mi SW 3.5 mph - N/A   Clear
12:52 AM 73.4 °F - 62.6 °F 69% 30.05 in 10.0 mi SW 4.6 mph - N/A   Clear
1:12 AM 73.4 °F - 64.4 °F 73% 30.05 in 10.0 mi Calm Calm - N/A   Clear
1:32 AM 73.4 °F - 64.4 °F 73% 30.05 in 10.0 mi Calm Calm - N/A   Clear
1:52 AM 73.4 °F - 64.4 °F 73% 30.05 in 10.0 mi Calm Calm - N/A   Clear
2:13 AM 73.4 °F - 64.4 °F 73% 30.05 in 10.0 mi WSW 3.5 mph - N/A   Clear
2:35 AM 73.4 °F - 64.4 °F 73% 30.05 in 10.0 mi Calm Calm - N/A   Clear
2:55 AM 71.6 °F - 66.2 °F 83% 30.05 in 10.0 mi WSW 3.5 mph - N/A   Clear
3:12 AM 71.6 °F - 66.2 °F 83% 30.05 in 10.0 mi Calm Calm - N/A   Clear
3:32 AM 71.6 °F - 66.2 °F 83% 30.04 in 10.0 mi Calm Calm - N/A   Clear
3:52 AM 69.8 °F - 66.2 °F 88% 30.04 in 10.0 mi Calm Calm - N/A   Clear
4:13 AM 68.0 °F - 66.2 °F 94% 30.04 in 10.0 mi Calm Calm - N/A   Scattered Clouds
4:33 AM 69.8 °F - 66.2 °F 88% 30.05 in 10.0 mi Calm Calm - N/A   Clear
4:53 AM 69.8 °F - 66.2 °F 88% 30.06 in 10.0 mi Calm Calm - N/A   Clear
5:13 AM 68.0 °F - 66.2 °F 94% 30.06 in 10.0 mi Calm Calm - N/A   Clear
5:33 AM 68.0 °F - 66.2 °F 94% 30.07 in 10.0 mi WSW 3.5 mph - N/A   Clear
5:53 AM 66.2 °F - 66.2 °F 100% 30.07 in 10.0 mi West 3.5 mph - N/A   Clear
6:13 AM 66.2 °F - 66.2 °F 100% 30.08 in 10.0 mi Calm Calm - N/A   Clear
6:33 AM 66.2 °F - 66.2 °F 100% 30.08 in 10.0 mi Calm Calm - N/A   Clear
6:54 AM 66.2 °F - 66.2 °F 100% 30.09 in 10.0 mi Calm Calm - N/A   Clear
7:14 AM 69.8 °F - 69.8 °F 100% 30.08 in 10.0 mi SW 3.5 mph - N/A   Clear
7:34 AM 71.6 °F - 69.8 °F 94% 30.08 in 10.0 mi Calm Calm - N/A   Clear
7:54 AM 73.4 °F - 69.8 °F 88% 30.08 in 10.0 mi WSW 3.5 mph - N/A   Clear
8:14 AM 73.4 °F - 68.0 °F 83% 30.09 in 10.0 mi SW 5.8 mph - N/A   Clear
8:54 AM 77.0 °F - 66.2 °F 69% 30.09 in 10.0 mi SW 5.8 mph - N/A   Scattered Clouds
9:14 AM 78.8 °F - 66.2 °F 65% 30.09 in 10.0 mi WSW 6.9 mph - N/A   Mostly Cloudy
9:34 AM 80.6 °F 82.7 °F 66.2 °F 61% 30.09 in 10.0 mi WSW 6.9 mph - N/A   Overcast
10:15 AM 82.4 °F 84.6 °F 66.2 °F 58% 30.09 in 10.0 mi West 10.4 mph - N/A   Scattered Clouds
10:35 AM 82.4 °F 83.9 °F 64.4 °F 54% 30.09 in 10.0 mi WSW 11.5 mph - N/A   Mostly Cloudy
10:55 AM 84.2 °F 85.6 °F 64.4 °F 51% 30.09 in 10.0 mi WSW 11.5 mph 17.3 mph N/A   Scattered Clouds
11:15 AM 86.0 °F 87.3 °F 64.4 °F 48% 30.09 in 10.0 mi WSW 12.7 mph - N/A   Scattered Clouds
11:35 AM 87.8 °F 89.4 °F 64.4 °F 46% 30.09 in 10.0 mi WSW 8.1 mph - N/A   Scattered Clouds
11:55 AM 87.8 °F 89.4 °F 64.4 °F 46% 30.09 in 10.0 mi WSW 10.4 mph - N/A   Scattered Clouds
12:15 PM 87.8 °F 88.5 °F 62.6 °F 43% 30.09 in 10.0 mi WSW 9.2 mph - N/A   Scattered Clouds
12:35 PM 89.6 °F 90.1 °F 62.6 °F 40% 30.08 in 10.0 mi WSW 13.8 mph 19.6 mph N/A   Clear
12:55 PM 91.4 °F 92.1 °F 62.6 °F 38% 30.07 in 10.0 mi WSW 12.7 mph 18.4 mph N/A   Clear
1:16 PM 91.4 °F 92.1 °F 62.6 °F 38% 30.07 in 10.0 mi WSW 12.7 mph 19.6 mph N/A   Scattered Clouds
1:36 PM 91.4 °F 92.1 °F 62.6 °F 38% 30.07 in 10.0 mi WSW 9.2 mph 19.6 mph N/A   Scattered Clouds
1:56 PM 91.4 °F 93.2 °F 64.4 °F 41% 30.06 in 10.0 mi West 10.4 mph 18.4 mph N/A   Scattered Clouds
2:16 PM 89.6 °F 90.1 °F 62.6 °F 40% 30.06 in 10.0 mi West 10.4 mph - N/A   Scattered Clouds
2:36 PM 93.2 °F 94.1 °F 62.6 °F 36% 30.05 in 10.0 mi West 16.1 mph 21.9 mph N/A   Scattered Clouds
2:56 PM 91.4 °F 92.1 °F 62.6 °F 38% 30.05 in 10.0 mi WSW 16.1 mph 23.0 mph N/A   Clear
3:16 PM 91.4 °F 92.1 °F 62.6 °F 38% 30.05 in 10.0 mi WSW 12.7 mph 20.7 mph N/A   Scattered Clouds
3:31 PM 91.4 °F 92.1 °F 62.6 °F 38% 30.04 in 10.0 mi WSW 12.7 mph 18.4 mph N/A   Scattered Clouds
3:51 PM 91.4 °F 91.4 °F 60.8 °F 36% 30.04 in 10.0 mi WSW 12.7 mph 23.0 mph N/A   Scattered Clouds
4:12 PM 93.2 °F 91.9 °F 57.2 °F 30% 30.03 in 10.0 mi West 13.8 mph - N/A   Scattered Clouds
4:32 PM 93.2 °F 93.3 °F 60.8 °F 34% 30.03 in 10.0 mi WSW 11.5 mph - N/A   Scattered Clouds
4:52 PM 93.2 °F 92.6 °F 59.0 °F 32% 30.02 in 10.0 mi West 13.8 mph - N/A   Scattered Clouds
5:12 PM 93.2 °F 93.3 °F 60.8 °F 34% 30.02 in 10.0 mi WSW 10.4 mph - N/A   Clear
5:32 PM 93.2 °F 93.3 °F 60.8 °F 34% 30.01 in 10.0 mi SW 11.5 mph 18.4 mph N/A   Scattered Clouds
5:52 PM 91.4 °F 91.4 °F 60.8 °F 36% 30.01 in 10.0 mi SW 8.1 mph 19.6 mph N/A   Scattered Clouds
6:12 PM 91.4 °F 91.4 °F 60.8 °F 36% 30.01 in 10.0 mi WSW 15.0 mph - N/A   Scattered Clouds
6:32 PM 91.4 °F 91.4 °F 60.8 °F 36% 30.01 in 10.0 mi WSW 13.8 mph 21.9 mph N/A   Scattered Clouds
6:52 PM 91.4 °F 91.4 °F 60.8 °F 36% 30.01 in 10.0 mi WSW 13.8 mph 20.7 mph N/A   Scattered Clouds
7:12 PM 89.6 °F 89.5 °F 60.8 °F 38% 30.01 in 10.0 mi SW 13.8 mph 19.6 mph N/A   Clear
7:32 PM 89.6 °F 89.5 °F 60.8 °F 38% 30.01 in 10.0 mi WSW 12.7 mph 17.3 mph N/A   Clear
7:53 PM 89.6 °F 89.5 °F 60.8 °F 38% 30.02 in 10.0 mi WSW 12.7 mph 17.3 mph N/A   Clear
8:13 PM 87.8 °F 88.5 °F 62.6 °F 43% 30.01 in 10.0 mi WSW 8.1 mph - N/A   Clear
8:33 PM 87.8 °F 88.5 °F 62.6 °F 43% 30.01 in 10.0 mi WSW 4.6 mph - N/A   Clear
8:53 PM 84.2 °F 85.6 °F 64.4 °F 51% 30.02 in 10.0 mi WSW 6.9 mph - N/A   Clear
9:13 PM 84.2 °F 85.6 °F 64.4 °F 51% 30.02 in 10.0 mi WSW 6.9 mph - N/A   Clear
9:33 PM 82.4 °F 84.6 °F 66.2 °F 58% 30.03 in 10.0 mi WSW 6.9 mph - N/A   Clear
9:53 PM 82.4 °F 83.9 °F 64.4 °F 54% 30.04 in 10.0 mi West 6.9 mph - N/A   Clear
10:13 PM 82.4 °F 83.9 °F 64.4 °F 54% 30.04 in 10.0 mi West 6.9 mph - N/A   Clear
10:34 PM 80.6 °F 82.3 °F 64.4 °F 58% 30.05 in 10.0 mi WSW 5.8 mph - N/A   Clear
10:54 PM 80.6 °F 82.7 °F 66.2 °F 61% 30.05 in 10.0 mi SW 5.8 mph - N/A   Clear
11:14 PM 78.8 °F - 66.2 °F 65% 30.04 in 10.0 mi SW 5.8 mph - N/A   Clear
11:34 PM 78.8 °F - 66.2 °F 65% 30.04 in 10.0 mi SW 4.6 mph - N/A   Clear
11:54 PM 77.0 °F - 68.0 °F 74% 30.04 in 10.0 mi WSW 4.6 mph - N/A   Clear